Lake Louise, Alberta

3:15 AM MDT on May 23, 2017 (GMT -0600)
Lake Louise

Weather History for 71786 - February, 2013

Change the Weather History Date:

Friday, February 22, 2013

  Actual Average Record
Temperature  
Mean Temperature 20 °F -  
Max Temperature 23 °F - - ()
Min Temperature 17 °F - - ()
Degree Days  
Heating Degree Days 45    
Moisture  
Dew Point 18 °F    
Average Humidity 92    
Maximum Humidity 94    
Minimum Humidity 87    
Precipitation  
Precipitation 0.00 in - - ()
Sea Level Pressure  
Sea Level Pressure 29.70 in    
Wind  
Wind Speed 13 mph ()    
Max Wind Speed 20 mph    
Max Gust Speed -    
T = Trace of Precipitation, MM = Missing Value Source: Averaged Metar Reports

Daily Weather History Graph

Daily Weather History Graph

Search for Another Location

Airport or City:

Trip Planner

Search our weather history database for the weather conditions in past years. The results will help you decide how hot, cold, wet, or windy it might be!

Date:

Astronomy

Feb. 22, 2013 Rise Set
Actual Time 7:44 AM MST 6:14 PM MST
Civil Twilight 7:10 AM MST 6:48 PM MST
Nautical Twilight 6:31 AM MST 7:26 PM MST
Astronomical Twilight 5:53 AM MST 8:05 PM MST
Moon 3:16 PM MST (2/22) 5:47 AM MST (2/22)
Length of Visible Light 11h 37m
Length of Day
10h 29m
Waxing Gibbous, 90% of the Moon is Illuminated
Feb 22
Waxing Gibbous
Feb 25
Full
Mar 4
Last Quarter
Mar 11
New
Mar 19
First Quarter

Hourly Weather History & Observations

Time (MST) Temp. Windchill Dew Point Humidity Pressure Visibility Wind Dir Wind Speed Gust Speed Precip Events Conditions
12:00 AM 18.3 °F 5.2 °F 16.3 °F 92% 29.90 in - West 12.7 mph - N/A   Unknown
1:00 AM 18.5 °F 6.1 °F 16.5 °F 92% 29.90 in - West 11.5 mph - N/A   Unknown
2:00 AM 18.3 °F 4.6 °F 16.3 °F 92% 29.90 in - West 13.8 mph - N/A   Unknown
3:00 AM 18.0 °F 3.6 °F 16.0 °F 92% 29.89 in - West 15.0 mph - N/A   Unknown
4:00 AM 18.1 °F 5.0 °F 16.3 °F 93% 29.87 in - West 12.7 mph - N/A   Unknown
5:00 AM 18 °F - 16 °F 89% 29.85 in - West 16.1 mph - -  
5:00 AM 18.0 °F 3.1 °F 16.2 °F 93% 29.85 in - West 16.1 mph - N/A   Unknown
6:00 AM 17.8 °F 3.4 °F 16.0 °F 93% 29.85 in - West 15.0 mph - N/A   Unknown
7:00 AM 17.8 °F 2.9 °F 16.0 °F 93% 29.82 in - West 16.1 mph - N/A   Unknown
8:00 AM 18.0 °F 2.2 °F 16.2 °F 93% 29.81 in - West 18.4 mph - N/A   Unknown
9:00 AM 18.0 °F 1.7 °F 16.3 °F 93% 29.78 in - West 19.6 mph - N/A   Unknown
10:00 AM 18.7 °F 2.7 °F 16.9 °F 93% 29.76 in - West 19.6 mph - N/A   Unknown
11:00 AM 19 °F - 17 °F 91% 29.74 in - West 17.3 mph - -  
11:00 AM 19.4 °F 4.5 °F 17.4 °F 92% 29.74 in - West 17.3 mph - N/A   Unknown
12:00 PM 19.9 °F 5.2 °F 18.0 °F 92% 29.72 in - West 17.3 mph - N/A   Unknown
1:00 PM 20.8 °F 5.5 °F 18.7 °F 91% 29.68 in - West 19.6 mph - N/A   Unknown
2:00 PM 22.3 °F 8.2 °F 19.9 °F 91% 29.62 in - West 17.3 mph - N/A   Unknown
3:00 PM 22.8 °F 8.9 °F 20.5 °F 91% 29.59 in - West 17.3 mph - N/A   Unknown
4:00 PM 23.2 °F 10.3 °F 20.8 °F 91% 29.57 in - West 15.0 mph - N/A   Unknown
5:00 PM 23 °F - 21 °F 87% 29.56 in - West 13.8 mph - -  
5:00 PM 22.8 °F 10.4 °F 20.7 °F 91% 29.56 in - West 13.8 mph - N/A   Unknown
6:00 PM 22.5 °F 9.4 °F 20.5 °F 92% 29.55 in - West 15.0 mph - N/A   Unknown
7:00 PM 22.5 °F 8.0 °F 20.8 °F 93% 29.54 in - West 18.4 mph - N/A   Unknown
8:00 PM 21.9 °F 8.7 °F 20.3 °F 93% 29.52 in - West 15.0 mph - N/A   Unknown
9:00 PM 22.1 °F 9.5 °F 20.5 °F 93% 29.52 in - West 13.8 mph - N/A   Unknown
10:00 PM 22.3 °F 10.8 °F 20.8 °F 94% 29.51 in - West 11.5 mph - N/A   Unknown
11:00 PM 22 °F - 20 °F 91% 29.52 in - West 10.4 mph - -  
11:00 PM 21.9 °F 11.0 °F 20.5 °F 94% 29.52 in - West 10.4 mph - N/A   Unknown